Location: Poughquag
(41.6090°N, 73.6820°W)
Time: 06:36:12
(UTC-04:00)

Envisat - Visible Passes

Search period start: 28 May 2022 00:00
Search period end: 07 June 2022 00:00
Orbit: 764 x 765 km, 98.2° (Epoch: 27 May)

Date Brightness Start Highest point End Pass type
(mag) Time Alt. Az. Time Alt. Az. Time Alt. Az.
28 May 5.2 04:37:58 10° NE 04:42:07 25° E 04:46:13 10° SSE visible
29 May 6.0 04:03:42 10° ENE 04:04:48 11° E 04:05:52 10° E visible
31 May 5.5 04:26:39 10° NE 04:30:16 19° E 04:33:51 10° SE visible
03 Jun 5.6 04:15:30 10° NE 04:18:22 15° E 04:21:15 10° SE visible
05 Jun 5.1 04:39:32 10° NE 04:43:47 26° E 04:48:00 10° SSE visible
06 Jun 5.9 04:04:50 10° ENE 04:06:28 11° E 04:08:05 10° ESE visible
